Hereford, TX

12:38 PM CDT on May 25, 2017 (GMT -0500)
Hereford Municipal

Weather History for KHRX - January, 2013

Change the Weather History Date:

Tuesday, January 29, 2013

  Actual Average (KCVN) Record (KCVN)
Temperature  
Mean Temperature 40 °F -  
Max Temperature 51 °F 53 °F 74 °F (1986)
Min Temperature 26 °F 24 °F -2 °F (1951)
Degree Days  
Heating Degree Days 26    
Moisture  
Dew Point 25 °F    
Average Humidity 57    
Maximum Humidity 93    
Minimum Humidity 22    
Precipitation  
Precipitation 0.00 in - - ()
Sea Level Pressure  
Sea Level Pressure 29.68 in    
Wind  
Wind Speed - (North)    
Max Wind Speed -    
Max Gust Speed -    
Visibility 9 miles    
Events Rain , Snow    
Averages and records for this station are not official NWS values.
T = Trace of Precipitation, MM = Missing Value Source: NWS Daily Summary

Daily Weather History Graph

Daily Weather History Graph

Search for Another Location

Airport or City:

Trip Planner

Search our weather history database for the weather conditions in past years. The results will help you decide how hot, cold, wet, or windy it might be!

Date:

Astronomy

Jan. 29, 2013 Rise Set
Actual Time 7:49 AM CST 6:15 PM CST
Civil Twilight 7:23 AM CST 6:42 PM CST
Nautical Twilight 6:52 AM CST 7:12 PM CST
Astronomical Twilight 6:22 AM CST 7:42 PM CST
Moon 9:04 PM CST (1/29) 8:56 AM CST (1/29)
Length of Visible Light 11h 19m
Length of Day
10h 25m
Waning Gibbous, 93% of the Moon is Illuminated
Jan 29
Waning Gibbous
Feb 3
Last Quarter
Feb 10
New
Feb 17
First Quarter
Feb 25
Full

Hourly Weather History & Observations

Time (CST) Temp. Dew Point Humidity Pressure Visibility Wind Dir Wind Speed Gust Speed Precip Events Conditions
12:15 AM 46.4 °F 28.4 °F 50% 29.73 in 10.0 mi North - - N/A   Clear
12:35 AM 48.2 °F 30.2 °F 50% 29.74 in 10.0 mi North - - N/A   Clear
12:55 AM 50.0 °F 30.2 °F 47% 29.74 in 10.0 mi North - - N/A   Clear
1:15 AM 50.0 °F 32.0 °F 50% 29.73 in 10.0 mi North - - N/A   Clear
1:35 AM 48.2 °F 32.0 °F 54% 29.72 in 10.0 mi North - - N/A Rain Light Rain
1:55 AM 50.0 °F 32.0 °F 50% 29.73 in 10.0 mi North - - N/A   Clear
2:15 AM 50.0 °F 32.0 °F 50% 29.75 in 10.0 mi North - - N/A   Clear
2:35 AM 50.0 °F 32.0 °F 50% 29.75 in 10.0 mi North - - N/A   Clear
2:55 AM 50.0 °F 32.0 °F 50% 29.75 in 10.0 mi North - - N/A   Clear
3:15 AM 50.0 °F 32.0 °F 50% 29.74 in 10.0 mi North - - N/A   Clear
3:35 AM 48.2 °F 32.0 °F 54% 29.73 in 10.0 mi North - - N/A   Clear
3:55 AM 48.2 °F 32.0 °F 54% 29.72 in 10.0 mi North - - N/A   Clear
4:15 AM 46.4 °F 32.0 °F 57% 29.72 in 10.0 mi North - - N/A   Clear
4:35 AM 44.6 °F 32.0 °F 61% 29.70 in 10.0 mi North - - N/A   Clear
5:15 AM 44.6 °F 32.0 °F 61% 29.70 in 10.0 mi North - - N/A   Clear
5:35 AM 42.8 °F 32.0 °F 66% 29.69 in 10.0 mi North - - N/A   Clear
5:55 AM 41.0 °F 32.0 °F 70% 29.68 in 10.0 mi North - - N/A   Clear
6:15 AM 41.0 °F 32.0 °F 70% 29.69 in 10.0 mi North - - N/A   Clear
6:35 AM 41.0 °F 32.0 °F 70% 29.69 in 10.0 mi North - - N/A   Clear
6:55 AM 39.2 °F 30.2 °F 70% 29.69 in 10.0 mi North - - N/A   Clear
7:15 AM 35.6 °F 30.2 °F 81% 29.69 in 10.0 mi North - - N/A   Clear
7:35 AM 35.6 °F 30.2 °F 81% 29.70 in 10.0 mi North - - N/A   Clear
7:55 AM 35.6 °F 28.4 °F 75% 29.67 in 10.0 mi North - - N/A   Clear
8:15 AM 35.6 °F 28.4 °F 75% 29.68 in 10.0 mi North - - N/A   Clear
8:35 AM 35.6 °F 26.6 °F 70% 29.68 in 10.0 mi North - - N/A   Clear
8:55 AM 39.2 °F 26.6 °F 61% 29.68 in 10.0 mi North - - N/A   Clear
9:15 AM 41.0 °F 26.6 °F 57% 29.68 in 10.0 mi North - - N/A   Clear
9:35 AM 41.0 °F 24.8 °F 53% 29.66 in 10.0 mi North - - N/A   Clear
9:55 AM 42.8 °F 24.8 °F 49% 29.66 in 10.0 mi North - - N/A   Clear
10:15 AM 42.8 °F 23.0 °F 46% 29.65 in 10.0 mi North - - N/A   Clear
10:35 AM 46.4 °F 19.4 °F 34% 29.64 in 10.0 mi North - - N/A   Clear
10:55 AM 44.6 °F 19.4 °F 37% 29.65 in 10.0 mi North - - N/A   Clear
11:15 AM 44.6 °F 19.4 °F 37% 29.65 in 10.0 mi North - - N/A   Clear
11:35 AM 46.4 °F 17.6 °F 32% 29.64 in 10.0 mi North - - N/A   Clear
11:55 AM 48.2 °F 17.6 °F 30% 29.62 in 10.0 mi North - - N/A   Clear
12:15 PM 48.2 °F 19.4 °F 32% 29.62 in 10.0 mi North - - N/A   Clear
12:35 PM 46.4 °F 17.6 °F 32% 29.60 in 10.0 mi North - - N/A   Clear
12:55 PM 48.2 °F 17.6 °F 30% 29.59 in 10.0 mi North - - N/A   Clear
1:15 PM 48.2 °F 17.6 °F 30% 29.58 in 10.0 mi North - - N/A   Clear
1:35 PM 48.2 °F 17.6 °F 30% 29.56 in 10.0 mi North - - N/A   Clear
1:55 PM 48.2 °F 15.8 °F 27% 29.55 in 10.0 mi North - - N/A   Clear
2:15 PM 48.2 °F 14.0 °F 25% 29.55 in 10.0 mi North - - N/A   Clear
2:35 PM 50.0 °F 14.0 °F 24% 29.53 in 10.0 mi North - - N/A   Clear
2:55 PM 50.0 °F 12.2 °F 22% 29.53 in 10.0 mi North - - N/A   Clear
3:15 PM 51.8 °F 14.0 °F 22% 29.53 in 10.0 mi North - - N/A   Clear
3:35 PM 50.0 °F 12.2 °F 22% 29.53 in 10.0 mi North - - N/A   Clear
3:55 PM 50.0 °F 14.0 °F 24% 29.53 in 10.0 mi North - - N/A   Clear
4:15 PM 48.2 °F 14.0 °F 25% 29.54 in 10.0 mi North - - N/A   Clear
4:35 PM 44.6 °F 14.0 °F 29% 29.55 in 10.0 mi North - - N/A   Clear
4:55 PM 46.4 °F 10.4 °F 23% 29.56 in 10.0 mi North - - N/A   Clear
5:15 PM 42.8 °F 28.4 °F 57% 29.57 in 10.0 mi North - - N/A   Clear
5:35 PM 37.4 °F 30.2 °F 75% 29.59 in 10.0 mi North - - N/A   Clear
5:55 PM 33.8 °F 28.4 °F 81% 29.62 in 10.0 mi North - - N/A   Scattered Clouds
6:15 PM 33.8 °F 28.4 °F 81% 29.63 in 10.0 mi North - - N/A   Scattered Clouds
6:35 PM 32.0 °F 28.4 °F 87% 29.65 in 10.0 mi North - - N/A Snow Light Snow
6:55 PM 32.0 °F 28.4 °F 87% 29.67 in 7.0 mi North - - N/A Snow Light Snow
7:15 PM 32.0 °F 28.4 °F 87% 29.69 in 0.8 mi North - - N/A Snow Light Snow
7:35 PM 30.2 °F 28.4 °F 93% 29.71 in 2.0 mi North - - N/A Snow Light Snow
7:55 PM 30.2 °F 28.4 °F 93% 29.73 in 1.8 mi North - - N/A Snow Light Snow
8:15 PM 30.2 °F 28.4 °F 93% 29.74 in 1.2 mi North - - N/A Snow Light Snow
8:55 PM 30.2 °F 26.6 °F 86% 29.76 in 3.0 mi North - - N/A Snow Light Snow
9:15 PM 30.2 °F 26.6 °F 86% 29.78 in 5.0 mi North - - N/A Snow Light Snow
9:35 PM 30.2 °F 26.6 °F 86% 29.79 in 10.0 mi North - - N/A   Scattered Clouds
9:55 PM 30.2 °F 24.8 °F 80% 29.80 in 10.0 mi North - - N/A   Clear
10:15 PM 30.2 °F 23.0 °F 75% 29.81 in 10.0 mi North - - N/A   Clear
10:35 PM 30.2 °F 23.0 °F 75% 29.82 in 10.0 mi North - - N/A   Clear
10:55 PM 28.4 °F 23.0 °F 80% 29.83 in 10.0 mi North - - N/A   Clear
11:15 PM 28.4 °F 23.0 °F 80% 29.84 in 10.0 mi North - - N/A   Clear
11:35 PM 28.4 °F 23.0 °F 80% 29.85 in 10.0 mi North - - N/A   Clear
11:55 PM 26.6 °F 21.2 °F 80% 29.85 in 10.0 mi North - - N/A   Clear